Location: *
(42.0175°N, 9.4056°E)
Time: 20:16:45
(UTC+00:00)

Cosmos 1125 Rocket - Pass Details

Date: 25 August 2019
Orbit: 757 x 781 km, 74.0° (Epoch: 13 October)

Event Time Altitude Azimuth Distance (km) Brightness Sun altitude
Exits shadow 21:39:19 46° 316° (NW) 1,022 4.4 -32.1°
Drops below altitude 10° 21:43:49 10° 9° (N) 2,318 6.5 -32.5°
Sets 21:46:18 0° 15° (NNE) 3,252 7.3 -32.7°
